Home   Weather   Austin   Past weeks
Flag for USA

Past Weather in Austin, Texas, USA — Yesterday and Last 2 Weeks

Now
75 °F

Sunny.


Feels Like: 76 °F
Forecast: 78 / 61 °F
Wind: 8 mph from Northeast

Location: Camp Mabry / Austin City

Current Time: Oct 21, 2019 at 1:02:05 pm

Latest Report: Oct 21, 2019 at 11:51 am


Visibility: 10 mi

Pressure: 29.90 "Hg

Humidity: 23%

Dew Point: 35 °F

Location of AustinLocation

Past Weather in Austin — Graph

°F

Austin Temperature Yesterday

Maximum temperature yesterday: 95 °F (at 3:51 pm)
Minimum temperature yesterday: 67 °F (at 1:51 am)
Average temperature yesterday: 78 °F

High & Low Weather Summary for the Past Weeks

 TemperatureHumidityPressure
High99 °F (Oct 10, 2:51 pm)90% (Oct 11, 4:58 am)30.29 "Hg (Oct 11, 4:58 am)
Low47 °F (Oct 11, 12:00 pm)17% (Oct 19, 4:51 pm)29.63 "Hg (Oct 20, 5:51 pm)
Average73 °F57%29.94 "Hg
* Reported Oct 6 11:51 am — Oct 21 11:51 am, Austin. Weather by CustomWeather, © 2019

Note: Actual official high and low records may vary slightly from our data, if they occured in-between our weather recording intervals... More about our weather records

Advertising

Austin Weather History for the Previous 24 Hours

Scroll right to see more
 ConditionsComfort  
Time TempWeatherWind HumidityBarometerVisibility
11:51 am
Mon, Oct 21
75 °FSunny.8 mph23%29.90 "Hg10 mi
10:51 am73 °FSunny.12 mph28%29.91 "Hg10 mi
9:51 am69 °FSunny.10 mph41%29.90 "Hg10 mi
8:51 am67 °FSunny.5 mph51%29.86 "Hg10 mi
7:51 am65 °FPassing clouds.7 mph66%29.81 "Hg10 mi
6:51 am67 °FOvercast.6 mph76%29.78 "Hg10 mi
5:51 am67 °FMostly cloudy.6 mph87%29.75 "Hg10 mi
4:51 am67 °FPassing clouds.3 mph87%29.70 "Hg10 mi
3:51 am67 °FLight rain. Mostly cloudy.9 mph87%29.74 "Hg8 mi
3:33 am67 °FStrong thunderstorms. Fog.13 mph87%29.80 "Hg1 mi
3:16 am75 °FOvercast.13 mph55%29.77 "Hg10 mi
2:51 am80 °FOvercast.5 mph79%29.68 "Hg10 mi
2:32 am80 °FPassing clouds.8 mph76%29.71 "Hg10 mi
2:11 am80 °FPassing clouds.7 mph76%29.72 "Hg10 mi
1:51 am80 °FPassing clouds.5 mph76%29.67 "Hg10 mi
1:11 am80 °FPassing clouds.6 mph76%29.71 "Hg10 mi
12:51 am79 °FPassing clouds.7 mph79%29.67 "Hg10 mi
11:51 pm
Sun, Oct 20
80 °FPassing clouds.9 mph79%29.69 "Hg10 mi
10:51 pm81 °FLight rain. Mostly cloudy.7 mph77%29.71 "Hg10 mi
9:51 pm81 °FMostly cloudy.8 mph74%29.69 "Hg10 mi
8:51 pm80 °FMostly cloudy.7 mph69%29.69 "Hg10 mi
7:51 pm83 °FPassing clouds.7 mph61%29.67 "Hg10 mi
6:51 pm88 °FBroken clouds.7 mph52%29.64 "Hg10 mi
5:51 pm91 °FScattered clouds.12 mph47%29.63 "Hg10 mi
4:51 pm92 °FPassing clouds.10 mph43%29.65 "Hg10 mi
3:51 pm95 °FPassing clouds.8 mph40%29.65 "Hg10 mi
2:51 pm91 °FBroken clouds.6 mph45%29.68 "Hg10 mi
1:51 pm90 °FPassing clouds.7 mph52%29.72 "Hg10 mi
Weather by CustomWeather, © 2019

See weather overview